This is the latest recevied weather packets stored in our database for station/object IZ2PAG-10. If no packets are shown the sender has not sent any weather packets the latest 10 day(s).
| Time | Temp. | Humidity | Pressure | Rain* | Wind** | Luminosity | Snow |
|---|---|---|---|---|---|---|---|
| 1788313171 | 26.11° C | 50% | 1020.5 hPa | - | - | - | - |
| 1788311370 | 26.11° C | 54% | 1020.5 hPa | - | - | - | - |
| 1788309569 | 26.11° C | 52% | 1020.6 hPa | - | - | - | - |
| 1788307768 | 26.11° C | 51% | 1020.5 hPa | - | - | - | - |
| 1788305968 | 26.11° C | 53% | 1020.6 hPa | - | - | - | - |
| 1788304168 | 26.11° C | 53% | 1020.6 hPa | - | - | - | - |
| 1788302368 | 26.11° C | 50% | 1020.6 hPa | - | - | - | - |
| 1788300568 | 25.56° C | 55% | 1020.6 hPa | - | - | - | - |
| 1788298767 | 25.56° C | 55% | 1020.5 hPa | - | - | - | - |
| 1788296967 | 25.56° C | 54% | 1020.6 hPa | - | - | - | - |
| 1788295167 | 25.56° C | 54% | 1020.5 hPa | - | - | - | - |
| 1788293367 | 26.11° C | 54% | 1020.4 hPa | - | - | - | - |
| 1788291567 | 26.11° C | 54% | 1020.1 hPa | - | - | - | - |
| 1788289767 | 26.11° C | 54% | 1019.9 hPa | - | - | - | - |
| 1788287998 | 26.11° C | 54% | 1019.7 hPa | - | - | - | - |
| 1788287967 | 26.11° C | 54% | 1019.7 hPa | - | - | - | - |
| 1788286166 | 26.11° C | 54% | 1019.5 hPa | - | - | - | - |
| 1788284366 | 26.11° C | 54% | 1019.3 hPa | - | - | - | - |
| 1788282566 | 26.11° C | 53% | 1019.2 hPa | - | - | - | - |
| 1788280765 | 26.11° C | 53% | 1019.2 hPa | - | - | - | - |
| 1788278965 | 26.11° C | 53% | 1019.2 hPa | - | - | - | - |
| 1788277204 | 26.11° C | 53% | 1019.4 hPa | - | - | - | - |
| 1788277165 | 26.11° C | 53% | 1019.4 hPa | - | - | - | - |
| 1788275365 | 26.11° C | 53% | 1019.3 hPa | - | - | - | - |
| 1788273564 | 26.11° C | 53% | 1019.4 hPa | - | - | - | - |
* Rain since midnight (hover to see other rain measurements)
** Current wind speed in m/s (hover to see current wind gust speed)